CAPE
0 0 0 0 0 7 0 0 14 73 32 47 5 252 251 387 440 512 504 717 1088 1559 1935 2122 2289 2346 2495 2689 2601 2214 1892 1242
0 0 0 0 3 17 15 38 74 36 97 0 9 339 314 363 579 771 768 816 960 1337 1609 1788 1943 2162 2295 2391 2329 1739 1094 705
38 0 0 0 0 1 9 3 0 0 0 0 0 265 267 309 775 872 875 927 1048 1373 1586 1742 1778 1697 1697 1638 1660 1699 1225 830
104 4 0 10 9 13 9 3 0 30 72 18 12 231 295 591 890 984 1097 1206 1255 1406 1589 1821 2000 1943 1941 1833 1636 1674 1415 1165
38 76 41 14 1 29 0 11 20 197 268 131 95 118 86 817 1476 1511 1421 1374 1569 1942 2117 2229 2514 2575 2374 2151 2002 1871 1811 1663
144 6 112 175 53 19 0 0 0 5 2 224 314 388 457 1272 1445 1409 1738 2246 2365 2346 2617 2668 2777 2825 2718 2733 2918 2786 2588 2287
47 19 0 15 47 0 0 0 0 0 0 403 488 516 659 1405 1754 1652 1645 1873 1983 2106 2251 2336 2195 1888 1782 2017 2487 2681 2502 2495
65 9 34 6 0 1 0 0 0 0 105 592 376 537 893 1549 1406 1746 1685 1703 1831 1851 1675 1399 1065 629 637 757 772 793 829 804
115 24 0 0 71 50 29 5 0 0 930 851 657 692 1301 1497 1332 1586 1448 1548 1520 1451 1322 937 633 489 446 442 403 400 383 370
64 21 34 83 10 9 37 24 3 0 86 305 774 802 1145 1278 1475 1426 1296 1175 1219 1264 997 759 554 397 386 447 548 454 385 308
44 0 0 33 5 0 6 0 0 0 344 460 538 615 1108 1041 1520 1179 1171 1103 1013 830 447 331 271 392 424 394 442 519 414 454
10 3 0 3 0 1 0 1 15 67 355 500 334 214 368 1067 1142 1106 938 713 510 267 205 296 444 425 477 494 511 674 637 300
109 94 69 8 25 6 8 572 385 204 307 422 573 1368 1194 553 915 912 693 605 543 454 319 99 343 253 148 27 15 335 418 332
81 55 191 219 273 101 774 681 758 429 455 1213 1448 1216 1165 928 793 725 723 279 53 10 19 38 18 34 120 309 608 600 418 358
116 226 540 313 272 692 600 661 860 1069 1066 970 1070 910 689 425 369 183 1 1 6 15 0 0 86 294 355 333 326 330 305 192
75 73 190 184 209 270 221 242 741 787 838 853 900 428 149 0 0 0 0 1 0 0 10 51 49 124 241 240 211 161 132 83
23 11 0 12 29 5 215 371 358 303 232 109 101 45 1 0 0 0 0 0 18 13 12 31 62 164 86 77 81 94 43 26
1 0 0 145 35 140 142 158 91 72 22 2 0 0 0 0 0 5 38 42 40 34 37 119 51 32 26 47 61 39 32 15
0 0 0 0 0 0 56 83 10 12 7 0 0 0 4 6 33 19 63 86 96 98 76 91 60 58 87 38 17 25 37 19
CIN
0 0 0 0 0 -10 0 0 -3 -11 -69 -85 -109 -10 -43 -32 -47 -66 -55 -48 -61 -62 -62 -57 -45 -29 -19 -16 -13 -15 -12 -55
0 0 0 0 -12 -10 -2 -16 -24 -55 -111 -1 -31 -44 -32 -16 -3 -18 -31 -34 -46 -56 -68 -55 -44 -37 -19 -15 -15 -36 -81 -92
-37 0 0 0 0 -7 -16 -58 0 -27 -8 0 -25 -75 -27 -28 -2 -3 -5 -14 -38 -40 -55 -52 -58 -62 -66 -65 -44 -37 -61 -76
-16 -31 0 -8 -17 -28 -7 -3 -27 -24 -135 -134 -95 -6 -29 -7 -2 -4 -5 -7 -25 -23 -34 -37 -40 -49 -42 -44 -29 -6 -28 -56
-45 -15 -18 -11 -9 -12 0 -26 -26 -10 -20 -22 -14 -19 -26 -5 -4 -22 -15 -7 -7 -6 -2 -6 -14 -18 -16 -20 -9 -10 -2 -7
-10 -72 -19 -13 -4 -4 0 0 0 -10 -3 -6 -17 -25 -32 -18 -2 -2 -3 -10 -7 -7 -4 -3 -5 -3 -2 -2 -2 -2 -3 -2
-68 -213 0 -33 -30 0 0 0 0 0 0 -8 -13 -25 -24 -19 -3 -3 -2 -7 -10 -3 -2 -5 -22 -44 -49 -30 -7 -3 -4 -4
-61 -89 -61 -39 0 -2 0 0 0 0 -3 -22 -30 -43 -38 -25 -19 -6 -7 -3 -12 -6 -5 -25 -62 -100 -107 -80 -74 -63 -52 -51
-15 -100 0 0 -26 -8 -10 -15 0 0 -10 -22 -46 -53 -16 -11 -5 -11 -19 -9 -5 -1 -9 -40 -69 -76 -102 -95 -85 -63 -48 -29
-86 -119 -82 -46 -108 -46 -35 -14 -16 0 -9 -8 -7 -8 -2 -3 -3 -9 -12 -8 -1 -2 -2 -8 -5 -18 -42 -25 -26 -48 -47 -51
-138 0 0 -126 -44 0 -41 0 0 0 -14 -11 -16 -3 -3 -2 -6 -6 -6 -5 -4 -2 -2 -14 -21 -13 -10 -34 -40 -47 -58 -23
-167 -52 0 -70 -6 -5 0 -2 -8 -8 -4 -4 -9 -7 -3 -6 -10 -2 -2 -2 -3 -13 -3 -5 -14 -13 -11 -13 -23 -19 -19 -51
-21 -25 -59 -143 -43 -15 -33 -15 -16 -11 -4 -3 -6 -18 -48 -62 -1 -3 -2 -2 -3 -3 -3 -26 -14 -29 -59 -68 -30 -43 -29 -60
-11 -18 -7 -22 -4 -6 -27 -19 -11 -11 -3 -29 -27 -30 -25 -23 -9 -7 -6 -14 -38 -65 -71 -73 -74 -88 -99 -34 -8 -24 -46 -36
-23 -10 -22 -26 -21 -20 -17 -15 -28 -11 -5 -6 -9 -17 -67 -118 -30 -41 -8 -7 -75 -73 -1 0 -45 -35 -37 -55 -27 -51 -50 -91
-58 -42 -12 -8 -33 -68 -51 -31 -5 -4 -2 -6 -8 -30 -41 0 0 0 0 -17 0 -10 -63 -55 -59 -49 -44 -68 -86 -107 -101 -119
-28 -32 0 -11 -27 -27 -48 -55 -11 -6 -4 -12 -23 -28 -4 0 0 0 0 0 -95 -61 -48 -46 -77 -33 -82 -96 -110 -105 -134 -3
-1 0 -5 -15 -41 -29 -45 -35 -22 -8 -23 -19 0 0 0 0 0 -28 -63 -56 -77 -56 -31 -31 -57 -31 -7 -15 -57 -2 -2 -2
0 0 0 0 0 0 -14 -23 -15 -29 -53 -1 -1 -1 -2 -2 -104 -51 -54 -28 -25 -33 -36 -26 -23 -56 -46 -10 -14 -9 -2 -2
Wind_Speed
12 12 9 21 26 23 29 27 3 15 14 14 17 10 16 16 17 17 18 20 20 20 19 19 18 17 16 15 14 13 13 19
10 10 13 26 27 23 25 24 21 18 18 8 16 15 14 15 15 16 16 19 20 20 19 18 18 18 18 18 16 17 19 22
24 5 15 7 25 25 24 15 16 31 33 18 15 13 11 14 13 14 15 17 18 18 18 18 19 18 18 17 18 17 18 22
17 7 3 28 22 27 25 25 6 6 14 15 14 9 13 11 14 15 15 16 17 17 17 18 18 18 18 19 20 18 19 19
24 20 17 24 26 19 13 6 24 19 17 13 10 12 13 10 12 14 14 14 13 17 17 18 18 19 19 19 21 21 18 15
10 28 28 25 22 21 24 25 24 12 21 8 8 10 12 12 11 12 12 16 16 18 18 18 19 19 20 21 23 22 22 20
7 6 13 31 26 22 20 23 24 27 26 8 10 8 9 11 12 12 13 13 13 15 16 17 18 19 21 22 23 22 22 22
20 19 24 25 28 22 22 24 23 22 18 15 13 10 9 11 12 10 11 12 14 15 14 16 17 18 20 22 23 24 24 24
23 14 23 34 32 28 24 16 19 23 13 14 15 15 12 10 10 8 10 10 12 11 13 15 15 16 18 21 22 25 25 25
23 21 26 22 23 23 30 25 24 23 15 14 13 13 10 10 7 8 9 11 12 11 11 11 13 15 19 18 18 19 20 18
19 23 36 34 28 15 22 20 19 16 12 14 14 12 11 8 4 6 8 10 11 12 12 15 17 16 15 18 20 19 19 19
17 26 28 33 17 12 15 22 25 10 11 10 13 14 14 6 8 9 11 11 13 15 14 13 10 16 14 18 21 21 21 24
12 17 12 17 25 15 20 17 19 15 13 11 12 14 12 12 11 10 12 15 17 18 20 23 21 23 25 29 30 25 27 27
18 26 21 21 21 20 15 15 18 15 17 10 10 12 14 14 11 14 17 17 19 21 23 26 27 26 24 28 29 29 30 29
21 23 16 15 17 17 19 18 17 17 17 17 14 13 18 27 13 18 19 22 23 26 26 26 28 23 25 26 29 28 28 30
24 20 19 18 17 18 21 21 15 13 14 15 14 14 20 22 23 24 24 25 28 30 29 29 29 29 27 26 26 28 30 32
22 23 22 19 18 19 17 18 15 14 15 16 16 18 20 21 24 25 26 27 26 29 31 31 31 30 31 32 33 33 33 33
18 19 19 18 18 17 18 16 16 13 13 16 17 20 21 22 25 26 26 27 28 29 30 30 32 33 34 32 32 32 33 34
20 23 21 21 22 22 16 16 14 13 16 18 19 21 22 23 24 27 28 29 31 32 33 34 35 36 35 34 36 38 35 34
Wind_Direction
151 150 135 194 213 234 247 232 226 334 320 0 307 125 60 50 54 47 54 57 59 60 61 62 63 66 57 54 55 54 43 20
127 144 173 219 241 247 250 257 251 284 321 346 216 154 56 51 50 41 55 51 51 51 55 60 57 53 53 43 52 42 29 24
253 102 167 110 210 227 266 334 314 293 309 182 150 135 43 25 51 55 56 52 49 51 53 50 46 47 43 39 35 38 36 29
186 137 6 245 282 260 239 301 41 7 358 174 154 55 19 61 21 35 42 44 45 49 46 45 42 40 39 33 26 32 33 36
271 262 271 266 254 295 333 219 299 339 354 48 25 16 30 34 14 15 24 42 48 41 33 34 33 29 26 27 20 18 32 41
288 274 261 273 288 296 285 286 303 1 333 8 28 21 11 17 23 25 30 25 33 25 24 23 31 27 23 19 11 12 13 19
8 89 211 241 269 298 300 300 299 300 318 9 357 22 11 12 15 8 10 12 28 26 24 24 27 23 20 18 18 18 18 15
296 310 292 249 268 299 306 300 304 309 322 339 350 358 356 356 355 10 16 21 14 17 23 19 25 20 14 11 11 9 7 5
290 294 300 257 281 284 302 318 317 310 341 339 333 333 338 347 351 6 4 13 12 21 15 11 12 13 8 5 4 0 1 2
282 287 277 280 312 281 273 300 304 309 329 342 349 349 340 345 352 5 10 5 8 10 19 18 15 12 353 359 3 3 6 12
296 280 270 256 290 314 227 325 321 316 335 341 352 349 338 334 5 6 14 4 6 5 5 358 353 352 353 353 356 355 360 1
299 284 278 251 214 329 342 326 322 341 348 353 350 329 325 354 11 9 4 9 2 357 358 357 356 352 347 343 344 345 347 347
303 305 317 305 296 350 320 329 354 3 356 347 341 347 351 351 34 11 7 359 350 344 344 342 342 336 330 328 328 338 336 336
295 292 296 317 327 318 344 351 348 345 350 22 11 353 339 328 339 349 346 349 346 342 338 335 336 334 330 325 329 328 328 330
310 323 340 340 331 330 338 339 336 339 338 326 349 343 332 328 5 352 348 338 337 335 335 336 332 337 327 326 326 326 326 326
310 323 331 340 339 331 320 324 343 345 336 339 342 347 329 327 341 340 336 333 331 330 330 330 330 328 331 330 328 327 325 325
318 315 309 318 322 329 331 331 336 343 343 338 333 337 336 335 333 332 330 331 332 331 330 327 327 328 327 325 324 322 321 322
313 336 323 332 334 327 323 331 329 336 337 333 333 329 331 331 332 333 333 330 329 330 330 328 327 324 323 323 322 322 320 319
318 324 323 317 315 317 324 322 325 331 331 330 334 332 332 332 339 336 335 335 331 329 327 325 324 323 324 322 320 318 317 318